#timestamp,LO_Frequency,Hit,Temp,Hum 
1487106015.4,286047044.0,N,0.0,0.0
1487106035.2,286047044.7,N,0.0,0.0
1487106055.0,286047045.5,N,0.0,0.0
1487106075.1,286047047.0,N,0.0,0.0
1487106095.8,286047049.1,N,0.0,0.0
1487106115.7,286047048.8,N,0.0,0.0
1487106135.9,286047046.4,N,0.0,0.0
1487106155.7,286047042.9,N,0.0,0.0
1487106175.5,286047044.5,N,0.0,0.0
1487106195.7,286047048.0,N,0.0,0.0
1487106215.5,286047047.0,N,0.0,0.0
1487106235.4,286047044.6,N,0.0,0.0
1487106255.2,286047044.6,N,0.0,0.0
1487106275.0,286047045.0,N,0.0,0.0
1487106275.9,286047045.0,N,0.0,0.0
1487106295.8,286047045.9,N,0.0,0.0
1487106315.6,286047043.3,N,0.0,0.0
1487106335.8,286047047.1,N,0.0,0.0
1487106355.6,286047047.3,N,0.0,0.0
1487106375.4,286047047.6,N,0.0,0.0
1487106395.3,286047047.4,N,0.0,0.0
1487106415.1,286047046.3,N,0.0,0.0
1487106416.0,286047046.3,N,0.0,0.0
1487106435.3,286047048.8,N,0.0,0.0
1487106455.2,286047048.1,N,0.0,0.0
1487106475.1,286047052.2,N,0.0,0.0
1487106476.0,286047052.2,N,0.0,0.0
1487106495.8,286047053.5,N,0.0,0.0
1487106515.7,286047052.4,N,0.0,0.0
1487106535.5,286047049.6,N,0.0,0.0
1487106555.3,286047050.9,N,0.0,0.0
1487106575.2,286047054.4,N,0.0,0.0
1487106595.9,286047056.3,Y,0.0,0.0
1487106615.7,286047022.3,N,0.0,0.0
1487106635.6,286047024.7,N,0.0,0.0
1487106655.4,286047026.2,N,0.0,0.0
1487106675.2,286047025.3,N,0.0,0.0
1487106695.1,286047029.9,N,0.0,0.0
1487106696.0,286047029.9,N,0.0,0.0
1487106715.8,286047027.7,N,0.0,0.0
1487106735.6,286047026.7,N,0.0,0.0
1487106755.5,286047027.0,N,0.0,0.0
1487106775.3,286047025.5,N,0.0,0.0
1487106795.1,286047028.0,N,0.0,0.0
1487106815.9,286047028.9,N,0.0,0.0
1487106835.7,286047028.4,N,0.0,0.0
1487106855.5,286047029.7,N,0.0,0.0
1487106875.4,286047032.3,N,0.0,0.0
1487106895.2,286047028.6,N,0.0,0.0
1487106915.0,286047030.3,N,0.0,0.0
1487106915.9,286047030.3,N,0.0,0.0
1487106935.8,286047031.2,N,0.0,0.0
1487106955.6,286047028.7,N,0.0,0.0
1487106975.4,286047035.9,Y,0.0,0.0
1487106995.3,286046997.0,N,0.0,0.0
1487107015.1,286046999.2,N,0.0,0.0
1487107035.5,286046998.9,N,0.0,0.0
1487107055.3,286047002.4,N,0.0,0.0
1487107075.2,286046997.3,N,0.0,0.0
1487107095.0,286046997.2,N,0.0,0.0
1487107095.9,286046997.2,N,0.0,0.0
1487107115.7,286047001.6,N,0.0,0.0
1487107135.6,286046999.7,N,0.0,0.0
1487107155.4,286046998.8,N,0.0,0.0
1487107175.2,286047000.3,N,0.0,0.0
1487107195.1,286047000.1,N,0.0,0.0
1487107196.0,286047000.1,N,0.0,0.0
1487107215.8,286047001.6,N,0.0,0.0
1487107235.6,286047001.8,N,0.0,0.0
1487107255.5,286047003.4,N,0.0,0.0
1487107275.3,286047000.8,N,0.0,0.0
1487107295.1,286047002.0,N,0.0,0.0
1487107315.9,286047001.3,N,0.0,0.0
1487107335.7,286047001.0,N,0.0,0.0
1487107355.5,286047001.6,N,0.0,0.0
1487107375.4,286047003.8,N,0.0,0.0
1487107395.2,286047001.8,N,0.0,0.0
1487107415.0,286047001.4,N,0.0,0.0
1487107415.9,286047001.4,N,0.0,0.0
1487107435.8,286047001.7,N,0.0,0.0
1487107455.5,286047002.7,N,0.0,0.0
1487107475.4,286047002.7,N,0.0,0.0
1487107495.2,286047004.1,N,0.0,0.0
1487107515.0,286047004.0,N,0.0,0.0
1487107515.9,286047004.0,N,0.0,0.0
1487107535.8,286047000.3,N,0.0,0.0
1487107555.6,286046999.8,N,0.0,0.0
1487107575.4,286047002.3,N,0.0,0.0
1487107595.3,286047001.4,N,0.0,0.0
1487107615.1,286047005.9,N,0.0,0.0
1487107616.0,286047005.9,N,0.0,0.0
1487107635.8,286047004.2,N,0.0,0.0
1487107655.1,286047003.0,N,0.0,0.0
1487107656.0,286047003.0,N,0.0,0.0
1487107675.8,286047004.8,N,0.0,0.0
1487107695.7,286047007.2,N,0.0,0.0
1487107735.2,286047005.1,N,0.0,0.0
1487107755.0,286047005.0,N,0.0,0.0
1487107755.9,286047005.0,N,0.0,0.0
1487107795.3,286047007.1,Y,0.0,0.0
1487107815.2,286047000.0,N,0.0,0.0
1487107835.9,286047003.5,N,0.0,0.0
